Regional Weather Roundup
Issued by NWS

Home | Current Version | Previous Version | Text Only | Print | Product List | Glossary Off
Versions: 1 2 3 4 5 6 7 8 9 10 11 12 13 14 15 16 17 18 19 20 21 22 23 24 25 26 27

000
ASUS45 KBOU 161310
RWRCO

WEATHER ROUNDUP FOR COLORADO
NATIONAL WEATHER SERVICE DENVER/BOULDER CO
600 AM MST TUE JAN 16 2018

NOTE: "FAIR" INDICATES FEW OR NO CLOUDS BELOW 12000 FEET WITH NO
SIGNIFICANT WEATHER AND/OR OBSTRUCTIONS TO VISIBILITY.

COZ001>005-013-030-031-161400-
...NORTHWEST COLORADO...

CITY           SKY/WX    TMP DP  RH WIND       PRES   REMARKS
CRAIG          FAIR      -3  -7  82 W3        30.44S
HAYDEN         FAIR       3  -5  69 E15       30.42F WCI -16
MEEKER         FAIR       8   2  76 E3        30.41F
RABBIT EARS PA FAIR      12  -6  44 CALM      30.30R
STEAMBOAT SPGS FAIR      -7 -11  84 CALM      30.43S
WALDEN         FAIR      -9 -17  70 S6        30.41S WCI -23
$$

COZ006>008-011-161400-
...WEST CENTRAL VALLEYS...

CITY           SKY/WX    TMP DP  RH WIND       PRES   REMARKS
GRAND JUNCTION FAIR      23  12  62 SE12      30.41R WCI  12
MONTROSE       FAIR      17  13  84 SE8       30.43R WCI   7
EAGLE          FAIR       6   2  83 SE3       30.49R
RIFLE          FAIR      17  12  80 E5        30.43S WCI  10
DELTA          FAIR      18  13  82 CALM      30.43S
NUCLA          FAIR      19  16  86 CALM      30.40R
$$

COZ017>023-064>068-161400-
...SOUTHWEST COLORADO...

CITY           SKY/WX    TMP DP  RH WIND       PRES   REMARKS
DURANGO        FAIR      19  16  88 N6        30.34R WCI  11
CORTEZ         FAIR      16  12  84 NE5       30.33R WCI   9
PAGOSA SPRINGS MOCLDY    16  13  87 CALM      30.34R
TELLURIDE      FAIR      16  -4  39 SE7       30.33R WCI   7
WOLF CREEK PAS FAIR      18 -22  16 CALM      30.33S
$$

COZ009-010-012-014-032>034-037-058>063-161400-
...CENTRAL COLORADO...

CITY           SKY/WX    TMP DP  RH WIND       PRES   REMARKS
ASPEN          FAIR       7   2  80 S7        30.35F WCI  -5
BUENA VISTA    FAIR       1  -4  81 W5        30.38S WCI  -9
COPPER MTN     NOT AVBL
BERTHOUD PASS  FAIR       1  -9  60 NW12G23   30.24S WCI -15
COTTONWOOD PAS NOT AVBL
GUNNISON       NOT AVBL
KREMMLING      NOT AVBL
LEADVILLE      FAIR     -10 -20  61 NE5       30.30S WCI -22
MONARCH PASS   FAIR      12 -17  26 W9        30.38S WCI   0
SALIDA         FAIR      10   6  84 W3        30.47S
SUNLIGHT       FAIR      10   3  72 NE6       30.34S WCI   1
WILKERSON PASS FAIR      14 -42   6 N8        30.29R WCI   3
$$

COZ069>075-161400-
...SAN LUIS VALLEY/SANGRE DE CRISTO MOUNTAINS...

CITY           SKY/WX    TMP DP  RH WIND       PRES   REMARKS
ALAMOSA        CLOUDY    19  14  81 CALM      30.37R
DEL NORTE      CLOUDY     7   3  83 CALM      30.38R
LA VETA PASS   CLOUDY    12  10  92 SW17G24     N/A  FOG     WCI  -5
SAGUACHE       CLOUDY    18  14  86 CALM      30.39R
$$

COZ035-036-038>040-161400-
...NORTHERN COLORADO FRONT RANGE...

CITY           SKY/WX    TMP DP  RH WIND       PRES   REMARKS
DENVER INTL AP FAIR       4  -4  69 SW3       30.45S
DMNS CITY PARK NOT AVBL
AURORA         PTCLDY     3  -1  84 S7        30.44S WCI  -9
FRONT RANGE AP FAIR      -2  -8  77 S7        30.45S WCI -16
ERIE MUNI ARPT FAIR      -4  -8  82 CALM      30.54S
BOULDER MUN AP FAIR       5   1  85 CALM      30.46S
CENTENNIAL     FAIR       1  -2  87 SE5       30.42S WCI  -9
BROOMFIELD     FAIR       7   0  72 W3        30.44S
FORT COLLINS   FAIR      -4  -7  87 CALM      30.49F
LONGMONT       FAIR       0  -5  77 W3        30.50F
$$

COZ041-046-047-076>085-087-088-161400-
...PIKES PEAK/PALMER DIVIDE AND SOUTHERN FOOTHILLS...

CITY           SKY/WX    TMP DP  RH WIND       PRES   REMARKS
COLO. SPRINGS  FAIR       1  -6  72 N6        30.43F WCI -10
A. F. ACADEMY  MOCLDY     1  -4  81 NW3       30.40S
SCHRIEVER AFB  FAIR       1  -4  77 W7        30.43F WCI -11
CHEYENNE MTN   FAIR      11  10  93 CALM      30.32F
ELLICOTT         N/A    N/A N/A N/A CALM        N/A
FALCON         FAIR      -2  -5  87 W6        30.38S WCI -14
FORT CARSON    FAIR       2  -3  80 N3        30.44S
LIMON          FAIR      -6 -11  79 N6        30.48S WCI -19
MONUMENT HILL  FAIR       3  -6  66 SW5       30.38S WCI  -6
CANON CITY     FAIR       3   0  85 N5        30.48S WCI  -6
WALSENBURG     FAIR       0  -4  85 CALM      30.44S
TRINIDAD       FAIR      -1  -5  82 W5        30.47S WCI -11
$$

COZ042>045-048>051-090-091-161400-
...NORTHEAST COLORADO...

CITY           SKY/WX    TMP DP  RH WIND       PRES   REMARKS
GREELEY ARPT   FAIR      -7 -11  83 CALM      30.53F
AKRON          FAIR      -7 -11  83 W10       30.51S WCI -25
BURLINGTON     FAIR      -5  -9  83 NW10      30.56R WCI -23
WRAY           FAIR      -8 -13  77 W6        30.62S WCI -21
YUMA           FAIR      -9 -15  77 W8        30.57S WCI -26
STERLING       FAIR      -8 -13  77 CALM      30.57S
HOLYOKE        FAIR      -6 -11  77 W7        30.61S WCI -20
FORT MORGAN    FAIR      -8 -14  75 W3        30.54R
$$

COZ086-089-092>099-161400-
...SOUTHEAST COLORADO...

CITY           SKY/WX    TMP DP  RH WIND       PRES   REMARKS
PUEBLO         FAIR       0  -7  72 NE3       30.53F
LA JUNTA       FAIR       3  -4  72 CALM      30.58R
LAMAR          FAIR      -9 -14  78 SW6       30.61S WCI -22
SPRINGFIELD      N/A     -6 -10  83 W7        30.56R WCI -20
$$




USA.gov is the U.S. government's official web portal to all federal, state and local government web resources and services.